Tracking 27419 objects as of 9-Jun-2023
HD Live streaming from Space Station
objects crossing your sky now

DELTA 1 DEB

Track DELTA 1 DEB now!
10-day predictions


NORAD ID: 7133
Int'l Code: 1973-086CX
Perigee: 1,478.3 km
Apogee: 1,539.3 km
Inclination: 101.8 °
Period: 116.0 minutes
Semi major axis: 7879 km
RCS: 0.0439 m2 (small)
Launch date: November 6, 1973
Source: United States (US)
Launch site: AIR FORCE WESTERN TEST RANGE (AFWTR)

Note: This is SATELLITE DEBRIS
Your satellite tracking list
Your tracking list is empty




NASA's NSSDC Master Catalog

Two Line Element Set (TLE):
1 07133U 73086CX  23159.11200897 -.00000020  00000-0  17495-3 0  9998
2 07133 101.7717 215.3324 0038676 242.4656 191.5011 12.41160820243225
Source of the keplerian elements: AFSPC